Time,TemperatureF,DewpointF,PressureIn,WindDirection,WindDirectionDegrees,WindSpeedMPH,WindSpeedGustMPH,Humidity,HourlyPrecipIn,Conditions,Clouds,dailyrainin,SoftwareType,DateUTC
2013-01-15 00:53:00,65.0,-99.9,-100.00,North,0,0.0,0.0,-999,-99.99,,,-99.99,,2013-01-15 05:53:00,
2013-01-15 01:53:00,67.0,-99.9,-100.00,East,90,2.0,5.0,-999,-99.99,,,-99.99,,2013-01-15 06:53:00,
2013-01-15 02:43:00,65.0,-99.9,-100.00,North,0,0.0,0.0,-999,-99.99,,,-99.99,,2013-01-15 07:43:00,
2013-01-15 02:53:00,65.0,-99.9,-100.00,North,0,0.0,0.0,-999,-99.99,,,-99.99,,2013-01-15 07:53:00,
2013-01-15 03:53:00,66.0,-99.9,-100.00,ESE,110,1.0,2.0,-999,-99.99,,,-99.99,,2013-01-15 08:53:00,
2013-01-15 04:53:00,67.0,-99.9,-100.00,ESE,110,2.0,3.0,-999,-99.99,,,-99.99,,2013-01-15 09:53:00,
2013-01-15 05:52:00,66.0,-99.9,-100.00,ESE,110,2.0,5.0,-999,-99.99,,,-99.99,,2013-01-15 10:52:00,
2013-01-15 06:53:00,66.0,-99.9,-100.00,North,0,0.0,1.0,-999,-99.99,,,-99.99,,2013-01-15 11:53:00,
2013-01-15 07:53:00,64.0,-99.9,-100.00,North,0,0.0,1.0,-999,-99.99,,,-99.99,,2013-01-15 12:53:00,
2013-01-15 08:53:00,66.0,-99.9,-100.00,ESE,120,2.0,5.0,-999,-99.99,,,-99.99,,2013-01-15 13:53:00,
2013-01-15 08:54:00,70.0,-99.9,-100.00,ESE,110,5.0,8.0,-999,-99.99,,,-99.99,,2013-01-15 13:54:00,
2013-01-15 09:43:00,70.0,-99.9,-100.00,ESE,110,5.0,8.0,-999,-99.99,,,-99.99,,2013-01-15 14:43:00,
2013-01-15 10:53:00,73.0,-99.9,-100.00,SE,130,5.0,6.0,-999,-99.99,,,-99.99,,2013-01-15 15:53:00,
2013-01-15 11:43:00,74.0,-99.9,-100.00,East,80,5.0,8.0,-999,-99.99,,,-99.99,,2013-01-15 16:43:00,
2013-01-15 11:53:00,74.0,-99.9,-100.00,East,80,5.0,8.0,-999,-99.99,,,-99.99,,2013-01-15 16:53:00,
2013-01-15 12:53:00,78.0,-99.9,-100.00,ESE,110,3.0,7.0,-999,-99.99,,,-99.99,,2013-01-15 17:53:00,
2013-01-15 12:54:00,79.0,-99.9,-100.00,ESE,120,6.0,7.0,-999,-99.99,,,-99.99,,2013-01-15 17:54:00,
2013-01-15 13:43:00,79.0,-99.9,-100.00,ESE,120,6.0,7.0,-999,-99.99,,,-99.99,,2013-01-15 18:43:00,
2013-01-15 14:53:00,80.0,-99.9,-100.00,SSW,210,3.0,7.0,-999,-99.99,,,-99.99,,2013-01-15 19:53:00,
2013-01-15 15:53:00,80.0,-99.9,-100.00,SSE,160,5.0,9.0,-999,-99.99,,,-99.99,,2013-01-15 20:53:00,
2013-01-15 16:53:00,79.0,-99.9,-100.00,SSE,160,5.0,8.0,-999,-99.99,,,-99.99,,2013-01-15 21:53:00,
2013-01-15 17:53:00,78.0,-99.9,-100.00,SSW,200,5.0,7.0,-999,-99.99,,,-99.99,,2013-01-15 22:53:00,
2013-01-15 18:53:00,75.0,-99.9,-100.00,South,180,1.0,3.0,-999,-99.99,,,-99.99,,2013-01-15 23:53:00,
2013-01-15 19:53:00,72.0,-99.9,-100.00,North,0,0.0,1.0,-999,-99.99,,,-99.99,,2013-01-16 00:53:00,
2013-01-15 20:53:00,69.0,-99.9,-100.00,North,0,0.0,0.0,-999,-99.99,,,-99.99,,2013-01-16 01:53:00,
2013-01-15 21:53:00,69.0,-99.9,-100.00,North,0,0.0,0.0,-999,-99.99,,,-99.99,,2013-01-16 02:53:00,
2013-01-15 22:53:00,70.0,-99.9,-100.00,North,0,0.0,0.0,-999,-99.99,,,-99.99,,2013-01-16 03:53:00,
2013-01-15 23:53:00,71.0,-99.9,-100.00,North,0,0.0,1.0,-999,-99.99,,,-99.99,,2013-01-16 04:53:00,